Weather History for EGWU - March, 2013

Change the Weather History Date:

Wednesday, March 6, 2013

  Actual Average Record
Temperature  
Mean Temperature 48 °F -  
Max Temperature 55 °F 51 °F 59 °F (2007)
Min Temperature 42 °F 39 °F 28 °F (2009)
Degree Days  
Heating Degree Days 16    
Moisture  
Dew Point 39 °F    
Average Humidity 66    
Maximum Humidity 87    
Minimum Humidity 44    
Precipitation  
Precipitation 0.02 in - - ()
Sea Level Pressure  
Sea Level Pressure 29.54 in    
Wind  
Wind Speed 5 mph ()    
Max Wind Speed 10 mph    
Max Gust Speed -    
Visibility 5.4 miles    
Events Rain    
Averages and records for this station are not official NWS values.
T = Trace of Precipitation, MM = Missing Value Source: Averaged Metar Reports

Daily Weather History Graph

Daily Weather History Graph

Search for Another Location

Airport or City:

Trip Planner

Search our weather history database for the weather conditions in past years. The results will help you decide how hot, cold, wet, or windy it might be!

Date:

Astronomy

Mar. 06, 2013 Rise Set
Actual Time 6:35 AM GMT 5:50 PM GMT
Civil Twilight 6:02 AM GMT 6:24 PM GMT
Nautical Twilight 5:23 AM GMT 7:03 PM GMT
Astronomical Twilight 4:44 AM GMT 7:42 PM GMT
Moon 3:02 AM GMT (3/6) 11:46 AM GMT (3/6)
Length of Visible Light 12h 21m
Length of Day
11h 15m
Waning Crescent, 32% of the Moon is Illuminated
Mar 6
Waning Crescent
Mar 11
New
Mar 19
First Quarter
Mar 27
Full
Apr 3
Last Quarter

Hourly Weather History & Observations

Time (GMT) Temp. Windchill Dew Point Humidity Pressure Visibility Wind Dir Wind Speed Gust Speed Precip Events Conditions
12:50 AM 44.6 °F 43.1 °F 37.4 °F 76% 29.56 in 6.2 mi NE 3.5 mph - N/A   Mostly Cloudy
1:50 AM 42.8 °F 41.1 °F 37.4 °F 81% 29.56 in 6.2 mi East 3.5 mph - N/A   Mostly Cloudy
2:50 AM 42 °F - 37 °F 78% 29.57 in 6 mi ESE 2.3 mph - -   Mostly Cloudy
2:50 AM 42.8 °F - 37.4 °F 81% 29.56 in 6.2 mi ESE 2.3 mph - N/A   Mostly Cloudy
3:50 AM 42.8 °F - 39.2 °F 87% 29.56 in 6.2 mi ENE 2.3 mph - N/A   Mostly Cloudy
4:50 AM 46.4 °F 45.2 °F 39.2 °F 76% 29.53 in 6.2 mi East 3.5 mph - N/A   Mostly Cloudy
5:50 AM 46 °F - 38 °F 67% 29.55 in 6 mi NE 5.8 mph - -   Overcast
5:50 AM 46.4 °F 43.5 °F 39.2 °F 76% 29.53 in - NE 5.8 mph - N/A   Clear
6:50 AM 46.4 °F 44.3 °F 39.2 °F 76% 29.53 in 4.3 mi ENE 4.6 mph - N/A   Haze
7:50 AM 46.4 °F 43.5 °F 39.2 °F 76% 29.56 in 4.3 mi ENE 5.8 mph - N/A   Haze
8:50 AM 48 °F - 38 °F 60% 29.57 in 4 mi ENE 4.6 mph - -   Haze
8:50 AM 48.2 °F - 39.2 °F 71% 29.56 in 4.3 mi ENE 4.6 mph - N/A   Haze
9:50 AM 50.0 °F - 39.2 °F 66% 29.56 in 5.0 mi ENE 10.4 mph - N/A   Haze
10:50 AM 51.8 °F - 39.2 °F 62% 29.56 in 5.6 mi East 8.1 mph - N/A   Haze
11:50 AM 53 °F - 40 °F 50% 29.56 in 6 mi East 6.9 mph - -   Haze
11:50 AM 53.6 °F - 39.2 °F 58% 29.53 in 5.6 mi East 6.9 mph - N/A   Haze
12:50 PM 55.4 °F - 39.2 °F 54% 29.53 in - East 8.1 mph - N/A   Clear
1:50 PM 55.4 °F - 39.2 °F 54% 29.53 in - East 8.1 mph - N/A   Clear
2:50 PM 55 °F - 39 °F 44%  in 7 mi East 5.8 mph - -   Overcast
2:50 PM 55.4 °F - 39.2 °F 54% 29.53 in - East 5.8 mph - N/A   Clear
3:50 PM 55.4 °F - 41.0 °F 58% 29.50 in - ENE 6.9 mph - N/A   Clear
4:50 PM 55.4 °F - 41.0 °F 58% 29.50 in - ENE 8.1 mph - N/A   Clear
5:50 PM 54 °F - 40 °F 47% 29.52 in 6 mi East 10.4 mph - -   Mostly Cloudy
5:50 PM 53.6 °F - 39.2 °F 58% 29.50 in - East 10.4 mph - N/A   Clear
6:50 PM 53.6 °F - 39.2 °F 58% 29.53 in - East 6.9 mph - N/A   Clear
7:50 PM 51.8 °F - 39.2 °F 62% 29.53 in 6.2 mi East 6.9 mph - N/A Rain Light Rain
8:50 PM 49 °F - 39 °F 59% 29.55 in 6 mi East 6.9 mph - -   Overcast
8:50 PM 50.0 °F - 39.2 °F 66% 29.53 in 6.2 mi East 6.9 mph - N/A   Overcast
9:50 PM 48.2 °F - 39.2 °F 71% 29.53 in 5.6 mi ENE 3.5 mph - N/A   Overcast
10:50 PM 48.2 °F - 41.0 °F 76% 29.53 in 4.3 mi ENE 4.6 mph - N/A   Overcast
11:50 PM 47 °F - 42 °F 76% 29.53 in 3 mi ENE 6.9 mph - -   Overcast
11:50 PM 46.4 °F 42.9 °F 41.0 °F 81% 29.50 in 3.1 mi ENE 6.9 mph - N/A   Overcast